This is the latest recevied weather packets stored in our database for station/object N4HAC. If no packets are shown the sender has not sent any weather packets the latest 10 day(s).
| Time | Temp. | Humidity | Pressure | Rain* | Wind** | Luminosity | Snow |
|---|---|---|---|---|---|---|---|
| 1777646163 | 13.89° C | 53% | 1009.6 hPa | 0 mm | - | 532 W/m² | - |
| 1777645861 | 13.33° C | 50% | 1009.7 hPa | 0 mm | - | 642 W/m² | - |
| 1777645558 | 13.89° C | 49% | 1010 hPa | 0 mm | - | 642 W/m² | - |
| 1777645254 | 13.33° C | 49% | 1009.7 hPa | 0 mm | - | 376 W/m² | - |
| 1777644950 | 13.33° C | 49% | 1009.9 hPa | 0 mm | - | 576 W/m² | - |
| 1777644648 | 13.89° C | 47% | 1009.9 hPa | 0 mm | - | 630 W/m² | - |
| 1777644343 | 13.33° C | 51% | 1009.7 hPa | 0 mm | - | 497 W/m² | - |
| 1777644039 | 13.89° C | 48% | 1009.9 hPa | 0 mm | - | 606 W/m² | - |
| 1777643736 | 13.33° C | 49% | 1009.9 hPa | 0 mm | - | 594 W/m² | - |
| 1777643434 | 13.33° C | 51% | 1009.7 hPa | 0 mm | - | 581 W/m² | - |
| 1777643131 | 13.33° C | 48% | 1010.1 hPa | 0 mm | - | 557 W/m² | - |
| 1777642827 | 12.78° C | 49% | 1009.8 hPa | 0 mm | - | 546 W/m² | - |
| 1777642525 | 12.78° C | 47% | 1009.9 hPa | 0 mm | - | 519 W/m² | - |
| 1777642221 | 12.22° C | 55% | 1009.9 hPa | 0 mm | - | 507 W/m² | - |
| 1777641918 | 12.22° C | 53% | 1009.6 hPa | 0 mm | - | 484 W/m² | - |
| 1777641613 | 12.22° C | 55% | 1009.9 hPa | 0 mm | - | 453 W/m² | - |
| 1777641308 | 11.67° C | 54% | 1009.8 hPa | 0 mm | - | 474 W/m² | - |
| 1777641004 | 12.22° C | 61% | 1009.9 hPa | 0 mm | - | 473 W/m² | - |
| 1777640701 | 12.22° C | 61% | 1010 hPa | 0 mm | - | 461 W/m² | - |
| 1777640397 | 11.67° C | 61% | 1009.9 hPa | 0 mm | - | 438 W/m² | - |
| 1777640094 | 11.11° C | 63% | 1009.9 hPa | 0 mm | - | 400 W/m² | - |
| 1777639791 | 11.11° C | 63% | 1010 hPa | 0 mm | - | 326 W/m² | - |
| 1777639489 | 10.56° C | 67% | 1010 hPa | 0 mm | - | 331 W/m² | - |
| 1777639185 | 11.11° C | 66% | 1009.9 hPa | 0 mm | - | 253 W/m² | - |
| 1777638881 | 10.56° C | 64% | 1010 hPa | 0 mm | - | 292 W/m² | - |
* Rain latest hour (hover to see other rain measurements)
** Current wind speed in m/s (hover to see current wind gust speed)